Weather in Qingyuan

China     42°06′22″N   124°57′37″E
temp.,
°C
wind,
m/s
gust,
m/s
humid.,
%
clouds,
%
prec.,
mm/h
press.,
hPa
HPBL,
m
3 march, wed
wed323:00−6sse25550 0.0 1027121
02:00−5s4125428 0.0 1025411
05:00−4s5165094 0.0 1024712
08:00−3s7165991 0.0 1023832
11:00+2ssw7145574 0.0 10211072
14:00+4ssw7155875 0.0 10181227
17:00+2ssw6156846 0.0 10191050
20:000s6187323 0.0 1020861
4 march, thu
thu423:000ssw618780 0.0 1021865
02:00−1s718810 0.0 1020743
05:00−1s718790 0.0 1020690
08:00+1s818740 0.0 1019727
11:00+5ssw715540 0.0 10181062
14:00+6ssw814570 0.0 10171029
17:00+3ssw513710 0.0 1018813
20:00+1s411830 0.0 1019426
5 march, fri
fri523:00+1s4138613 0.0 1020477
02:00+2ssw4128756 0.0 1020606
05:00+1nw3899100 0.3 1023443
08:00−6nne4886100 1.8 1028620
11:00−7n4681100 0.8 1031652
14:00−6n5758100 1.0 1033958
17:00−9nne686994 0.0 1035887
20:00−12ne597397 0.0 1038730
6 march, sat
sat623:00−14ne5106242 0.0 1040653
02:00−15ne496021 0.0 1041538
05:00−16ne39610 0.0 1040459
08:00−14ne37500 0.0 1041422
11:00−8ne35360 0.0 1038556
14:00−5nne35350 0.0 1035627
17:00−7ne24460 0.0 1034381
20:00−10e11620 0.0 103521
7 march, sun
sun723:00−11se11600 0.0 103421
02:00−10sse12500 0.0 103321
05:00−10sse12480 0.0 103221
08:00−5s12350 0.0 1031119
11:00+3wsw24180 0.0 1029734
14:00+4w35190 0.0 10271013
17:000w26330 0.0 1027156
20:00−4wsw12420 0.0 103021